ARIANE 40+ R/B (23561 NORAD) Tracking and Keplerian Element Data

This shows tracking and keplerian element data for the satellite.

Feedback or suggestion? Click here.




ElementValue
Catalog23561
NameARIANE 40+ R/B
Epoch Orbit23912
Epoch Day345.07853539
Epoch Year2018
RAAN3.7542
Inclination98.7828
Eccentricity0.0007948
Argument of Perigee96.1216
Mean Anonmoly327.3725
Mean Motion14.3789994
Decay Rate2E-07
L11 23561U 95021B 18345.07853539 .00000020 00000-0 21996-4 0 9998
L22 23561 98.7828 3.7542 0007948 96.1216 327.3725 14.37899940239125

Live tracking and technical data element details for ARIANE 40+ R/B (NORAD 23561). ARIANE 40+ R/B can be tracked NOW for your location showing map with azimuth and elevation plus other details from your city location.

Track the satellite on the map from your city or location and see movement details for azimuth, elevation, latitude, longitude, range, height, and movement on the map or in text.







IsCatalogInMostPopularTable: catalog: 23561, numindb: 40
Update: records affected: 1



GetName: 23561 ARIANE 40+ R/B

Hit Count: updated at: Thu, 13 Dec 2018 03:51:53 GMT